Location: Newark
(43.0000°N, 1.6781°W)
Time: 06:13:17
(UTC+00:00)

Vanguard 1 - Pass Details

Date: 03 December 2021
Orbit: 652 x 3830 km, 34.2° (Epoch: 16 January)

Event Time Altitude Azimuth Distance (km) Brightness Sun altitude
Exits shadow 00:43:49 28° 98° (E) 4,996 13.5 -66.9°
Drops below altitude 10° 00:50:20 10° 88° (E) 5,945 14.1 -66.3°
Sets 00:54:17 0° 85° (E) 6,633 14.5 -65.9°
